period_start,C,m1,H,J0,J1,J2,J3,J4,J5,JA,JB,JC,JD,JJ,JK,JN,#
2017-08-21 00:04:17,0.02,0.06,0.00,24.40,28.87,31.70,13.83,44.51,1012.98,2026.82,3509.08,3066.00,3513.98,599.87,591.05,8.42,0000 0000 0000 0000 000000
2017-08-21 00:09:19,0.01,0.06,0.00,24.40,28.87,31.72,13.84,44.51,1013.05,2026.86,3509.00,3065.99,3513.84,600.15,591.29,8.47,0000 0000 0000 0000 000000
2017-08-21 00:14:20,0.01,0.06,0.00,24.40,28.87,31.73,13.85,44.55,1013.01,2026.83,3508.97,3065.97,3513.31,600.33,591.47,8.52,0000 0000 0000 0000 000000
2017-08-21 00:19:21,0.00,0.06,0.00,24.40,28.88,31.71,13.84,44.38,1012.97,2026.74,3508.47,3065.95,3513.02,600.10,591.24,8.57,0000 0000 0000 0000 000000
2017-08-21 00:24:23,0.02,0.06,0.00,24.40,28.88,31.73,13.83,44.43,1012.80,2026.67,3508.03,3065.56,3513.00,600.01,590.94,8.62,0000 0000 0000 0000 000000
2017-08-21 00:29:24,0.01,0.06,0.00,24.42,28.89,31.74,13.83,44.44,1012.86,2026.63,3507.99,3065.13,3512.96,600.08,590.96,8.67,0000 0000 0000 0000 000000
2017-08-21 00:34:25,0.01,0.07,0.00,24.42,28.90,31.74,13.84,44.42,1012.83,2026.74,3507.81,3065.04,3512.55,600.06,591.04,8.72,0000 0000 0000 0000 000000
2017-08-21 00:39:27,0.02,0.07,0.00,24.42,28.90,31.71,13.84,44.54,1012.71,2026.80,3507.25,3065.03,3512.10,600.01,590.91,8.77,0000 0000 0000 0000 000000
2017-08-21 00:44:28,0.01,0.07,0.00,24.42,28.90,31.71,13.80,44.79,1012.71,2026.82,3507.01,3065.00,3512.00,600.00,590.94,8.82,0000 0000 0000 0000 000000
2017-08-21 00:49:30,0.00,0.07,0.00,24.42,28.90,31.73,13.76,44.47,1012.72,2026.82,3506.94,3064.99,3511.98,599.59,590.56,8.87,0000 0000 0000 0000 000000
2017-08-21 00:54:31,0.01,0.07,0.00,24.42,28.90,31.75,13.85,44.52,1012.71,2026.80,3506.51,3064.97,3511.85,600.23,591.10,8.92,0000 0000 0000 0000 000000
2017-08-21 00:59:32,0.01,0.07,0.00,24.42,28.90,31.75,13.84,44.64,1012.71,2026.68,3506.06,3064.81,3511.16,600.06,590.93,8.97,0000 0000 0000 0000 000000
2017-08-21 01:04:33,-0.02,0.07,0.00,24.42,28.90,31.73,13.81,44.64,1012.71,2026.34,3505.99,3064.20,3511.00,600.26,591.16,9.02,0000 0000 0000 0000 000000
2017-08-21 01:09:34,0.02,0.07,0.00,24.42,28.90,31.73,13.78,44.50,1012.71,2026.32,3505.85,3064.05,3510.99,600.02,590.98,9.07,0000 0000 0000 0000 000000
2017-08-21 01:14:36,0.01,0.07,0.00,24.42,28.90,31.71,13.77,44.59,1012.71,2026.38,3505.18,3064.01,3510.85,599.75,590.72,9.12,0000 0000 0000 0000 000000
2017-08-21 01:19:37,0.01,0.07,0.00,24.43,28.91,31.71,13.82,44.52,1012.71,2026.33,3505.01,3064.00,3510.30,600.17,591.11,9.17,0000 0000 0000 0000 000000
2017-08-21 01:24:38,0.01,0.07,0.00,24.42,28.91,31.74,13.77,44.58,1012.69,2026.32,3504.33,3063.91,3509.99,599.86,590.82,9.22,0000 0000 0000 0000 000000
2017-08-21 01:29:40,0.02,0.07,0.00,24.42,28.92,31.72,13.83,44.48,1012.38,2026.27,3503.99,3063.65,3509.74,600.07,590.81,9.27,0000 0000 0000 0000 000000
2017-08-21 01:34:41,0.02,0.07,0.00,24.43,28.92,31.73,13.83,44.52,1012.29,2026.20,3503.78,3063.27,3509.26,600.08,590.71,9.32,0000 0000 0000 0000 000000
2017-08-21 01:39:42,0.01,0.07,0.00,24.42,28.92,31.76,13.78,44.58,1012.27,2026.23,3503.09,3063.06,3509.02,600.02,590.68,9.37,0000 0000 0000 0000 000000
2017-08-21 01:44:43,-0.01,0.07,0.00,24.43,28.92,31.79,13.84,44.60,1012.24,2026.10,3502.99,3063.01,3509.00,599.90,590.47,9.42,0000 0000 0000 0000 000000
2017-08-21 01:49:44,0.01,0.07,0.00,24.44,28.92,31.80,13.80,44.50,1012.23,2026.15,3502.88,3063.00,3508.98,599.78,590.37,9.47,0000 0000 0000 0000 000000
2017-08-21 01:54:45,0.02,0.07,0.00,24.44,28.92,31.80,13.77,44.54,1012.22,2026.19,3502.28,3063.00,3508.84,599.82,590.53,9.52,0000 0000 0000 0000 000000
2017-08-21 01:59:47,0.01,0.07,0.00,24.44,28.92,31.76,13.84,44.54,1012.22,2026.26,3502.02,3062.99,3508.29,600.02,590.60,9.57,0000 0000 0000 0000 000000
2017-08-21 02:04:48,0.01,0.07,0.00,24.46,28.92,31.77,13.83,44.51,1012.22,2026.26,3501.98,3062.97,3508.02,600.11,590.62,9.62,0000 0000 0000 0000 000000
2017-08-21 02:09:49,0.00,0.07,0.00,24.47,28.92,31.76,13.79,44.52,1012.16,2026.20,3501.76,3062.83,3508.00,599.86,590.44,9.67,0000 0000 0000 0000 000000
2017-08-21 02:14:51,0.01,0.07,0.00,24.48,28.92,31.82,13.81,44.61,1012.07,2026.14,3501.10,3062.40,3507.98,599.68,590.11,9.72,0000 0000 0000 0000 000000
2017-08-21 02:19:52,0.01,0.07,0.00,24.48,28.93,31.81,13.82,44.53,1012.05,2026.09,3501.00,3062.09,3507.75,600.28,590.70,9.77,0000 0000 0000 0000 000000
2017-08-21 02:24:53,0.01,0.08,0.00,24.49,28.94,31.86,13.79,44.58,1011.87,2026.13,3500.99,3062.04,3507.33,599.93,590.20,9.82,0000 0000 0000 0000 000000
2017-08-21 02:29:55,0.00,0.08,0.00,24.49,28.95,31.84,13.81,44.51,1011.89,2026.11,3500.94,3062.02,3507.06,599.99,590.28,9.87,0000 0000 0000 0000 000000
2017-08-21 02:34:56,0.00,0.08,0.00,24.49,28.95,31.89,13.78,44.67,1012.09,2026.07,3500.65,3062.00,3507.00,599.99,590.32,9.92,0000 0000 0000 0000 000000
2017-08-21 02:39:58,0.01,0.08,0.00,24.49,28.95,31.86,13.79,44.58,1011.93,2026.05,3500.17,3062.00,3507.00,599.91,590.33,9.97,0000 0000 0000 0000 000000
2017-08-21 02:44:59,-0.00,0.08,0.00,24.50,28.95,31.87,13.80,44.49,1011.75,2026.06,3500.00,3062.00,3506.97,600.26,590.39,10.02,0000 0000 0000 0000 000000
2017-08-21 02:50:00,0.00,0.08,0.00,24.50,28.95,31.79,13.89,44.68,1011.73,2026.07,3499.99,3062.00,3506.86,599.89,590.36,10.07,0000 0000 0000 0000 000000
2017-08-21 02:55:01,0.02,0.08,0.00,24.51,28.96,31.85,13.81,44.54,1011.75,2026.05,3499.53,3061.95,3506.21,599.95,590.12,10.12,0000 0000 0000 0000 000000
2017-08-21 03:00:03,0.01,0.08,0.00,24.51,28.97,31.88,13.79,44.53,1011.75,2026.06,3499.02,3061.69,3506.00,599.71,589.82,10.18,0000 0000 0000 0000 000000
2017-08-21 03:05:04,0.01,0.08,0.00,24.52,28.97,31.87,13.87,44.59,1011.74,2026.05,3498.98,3061.32,3505.98,599.99,590.06,10.23,0000 0000 0000 0000 000000
2017-08-21 03:10:05,0.01,0.08,0.00,24.53,28.97,31.90,13.81,44.52,1011.75,2026.08,3498.73,3061.05,3505.89,600.03,590.15,10.28,0000 0000 0000 0000 000000
2017-08-21 03:15:07,0.02,0.08,0.00,24.54,28.97,31.93,13.79,44.70,1011.74,2026.10,3498.11,3061.01,3505.37,599.91,590.01,10.33,0000 0000 0000 0000 000000
2017-08-21 03:20:08,-0.00,0.08,0.00,24.55,28.98,31.94,13.84,44.71,1011.74,2026.08,3498.00,3061.00,3505.04,600.21,590.31,10.38,0000 0000 0000 0000 000000
2017-08-21 03:25:09,-0.00,0.08,0.00,24.55,29.00,31.92,13.83,44.60,1011.73,2026.03,3497.95,3060.99,3505.00,600.01,590.16,10.43,0000 0000 0000 0000 000000
2017-08-21 03:30:11,0.01,0.08,0.00,24.55,29.00,31.89,13.80,44.70,1011.73,2026.01,3497.45,3060.93,3504.89,599.93,590.02,10.48,0000 0000 0000 0000 000000
2017-08-21 03:35:13,0.03,0.08,0.00,24.56,29.00,31.93,13.79,44.66,1011.73,2026.00,3497.01,3060.33,3504.20,599.92,589.99,10.53,0000 0000 0000 0000 000000
2017-08-21 03:40:14,0.00,0.08,0.00,24.57,29.00,31.94,13.84,44.77,1011.73,2026.00,3496.97,3060.07,3504.00,599.90,589.93,10.58,0000 0000 0000 0000 000000
2017-08-21 03:45:15,0.01,0.08,0.00,24.58,29.02,31.95,13.78,44.82,1011.72,2026.00,3496.42,3060.01,3504.00,600.12,590.14,10.63,0000 0000 0000 0000 000000
2017-08-21 03:50:17,0.00,0.08,0.00,24.59,29.02,31.92,13.82,44.71,1011.73,2026.00,3496.05,3060.00,3503.92,600.16,590.13,10.68,0000 0000 0000 0000 000000
2017-08-21 03:55:18,0.00,0.08,0.00,24.60,29.02,31.94,13.80,44.82,1011.73,2026.00,3496.00,3060.00,3503.42,600.15,590.15,10.73,0000 0000 0000 0000 000000
2017-08-21 04:00:19,0.00,0.08,0.00,24.60,29.03,31.95,13.84,44.89,1011.73,2025.99,3495.89,3059.96,3503.04,600.15,590.12,10.78,0000 0000 0000 0000 000000
2017-08-21 04:05:20,0.02,0.09,0.00,24.60,29.04,31.93,13.79,44.90,1011.73,2025.99,3495.16,3059.60,3502.99,599.97,589.88,10.83,0000 0000 0000 0000 000000
2017-08-21 04:10:22,0.01,0.09,0.00,24.62,29.05,31.93,13.88,44.85,1011.73,2025.99,3495.00,3059.16,3502.88,600.23,590.13,10.88,0000 0000 0000 0000 000000
2017-08-21 04:15:23,0.01,0.09,0.00,24.62,29.05,31.92,13.81,44.78,1011.73,2025.99,3494.90,3059.03,3502.22,599.93,589.89,10.93,0000 0000 0000 0000 000000
2017-08-21 04:20:25,0.01,0.09,0.00,24.62,29.05,31.94,13.80,44.86,1011.77,2025.98,3494.12,3059.00,3502.01,599.83,589.88,10.98,0000 0000 0000 0000 000000
2017-08-21 04:25:26,0.00,0.09,0.00,24.62,29.05,31.94,13.77,44.85,1011.76,2025.99,3493.96,3058.99,3501.97,599.96,589.94,11.03,0000 0000 0000 0000 000000
2017-08-21 04:30:28,0.02,0.09,0.00,24.62,29.05,31.96,13.83,44.79,1011.76,2025.99,3493.27,3058.92,3501.58,600.04,589.99,11.08,0000 0000 0000 0000 000000
2017-08-21 04:35:29,0.02,0.09,0.00,24.63,29.06,31.92,13.78,44.77,1011.77,2025.99,3492.94,3058.33,3501.02,599.86,589.80,11.13,0000 0000 0000 0000 000000
2017-08-21 04:40:31,0.02,0.09,0.00,24.65,29.06,31.98,13.80,44.72,1011.74,2025.99,3492.13,3058.01,3500.80,600.09,590.04,11.18,0000 0000 0000 0000 000000
2017-08-21 04:45:32,0.01,0.09,0.00,24.66,29.07,31.94,13.79,44.78,1011.73,2025.99,3491.77,3057.99,3500.07,600.00,589.89,11.23,0000 0000 0000 0000 000000
2017-08-21 04:50:34,0.02,0.09,0.00,24.66,29.07,31.99,13.85,44.75,1011.72,2025.99,3490.94,3057.66,3499.86,600.35,590.15,11.28,0000 0000 0000 0000 000000
2017-08-21 04:55:35,0.03,0.10,0.00,24.64,29.07,31.96,13.80,44.77,1011.72,2025.99,3490.04,3057.03,3499.07,599.83,589.83,11.33,0000 0000 0000 0000 000000
2017-08-21 05:00:36,0.03,0.10,0.00,24.61,29.07,31.87,13.92,44.77,1011.73,2025.99,3489.08,3056.85,3498.46,600.10,590.01,11.38,0000 0000 0000 0000 000000
2017-08-21 05:05:37,0.04,0.10,0.00,24.58,29.07,31.87,13.72,44.68,1011.73,2025.99,3488.11,3056.09,3497.82,599.67,589.72,11.43,0000 0000 0000 0000 000000
2017-08-21 05:10:39,0.02,0.10,0.00,24.55,29.07,31.84,13.75,44.69,1011.73,2025.99,3487.09,3055.99,3497.03,599.78,589.93,11.48,0000 0000 0000 0000 000000
2017-08-21 05:15:40,0.05,0.10,0.00,24.52,29.07,31.80,13.76,44.51,1011.73,2025.99,3486.09,3055.31,3496.39,600.02,590.17,11.53,0000 0000 0000 0000 000000
2017-08-21 05:20:41,0.02,0.10,0.00,24.49,29.07,31.76,13.82,44.58,1011.71,2025.98,3485.10,3054.98,3495.76,600.37,590.56,11.58,0000 0000 0000 0000 000000
2017-08-21 05:25:42,0.04,0.11,0.00,24.45,29.06,31.72,13.78,44.66,1011.39,2025.99,3484.06,3054.31,3495.04,599.84,589.95,11.63,0000 0000 0000 0000 000000
2017-08-21 05:30:44,0.03,0.11,0.00,24.43,29.05,31.71,13.84,44.79,1011.25,2025.99,3483.17,3054.01,3494.49,599.91,590.07,11.68,0000 0000 0000 0000 000000
2017-08-21 05:35:45,0.01,0.11,0.00,24.41,29.05,31.63,13.83,44.88,1011.14,2025.99,3482.42,3053.98,3494.00,599.83,589.90,11.73,0000 0000 0000 0000 000000
2017-08-21 05:40:46,0.05,0.11,0.00,24.39,29.04,31.62,13.80,44.76,1010.94,2026.00,3481.56,3053.32,3493.42,599.80,589.74,11.78,0000 0000 0000 0000 000000
2017-08-21 05:45:47,0.01,0.11,0.00,24.37,29.02,31.62,13.87,44.87,1011.01,2026.00,3480.87,3053.01,3492.98,600.05,590.09,11.83,0000 0000 0000 0000 000000
2017-08-21 05:50:48,0.03,0.11,0.00,24.37,29.02,31.57,13.80,44.83,1011.24,2026.00,3480.06,3052.85,3492.34,599.83,589.87,11.88,0000 0000 0000 0000 000000
2017-08-21 05:55:50,0.03,0.12,0.00,24.35,29.00,31.59,13.79,44.86,1011.25,2026.02,3479.25,3052.17,3491.97,599.81,589.90,11.93,0000 0000 0000 0000 000000
2017-08-21 06:00:51,0.02,0.12,0.00,24.32,29.00,31.56,13.81,44.77,1011.26,2026.03,3478.56,3052.00,3491.21,599.84,590.11,11.98,0000 0000 0000 0000 000000
2017-08-21 06:05:52,0.02,0.12,0.00,24.30,28.98,31.56,13.86,44.94,1011.25,2026.04,3477.79,3051.77,3490.85,600.22,590.52,12.03,0000 0000 0000 0000 000000
2017-08-21 06:10:53,0.04,0.12,0.00,24.29,28.96,31.55,13.71,44.97,1011.25,2026.07,3477.03,3051.07,3490.07,599.83,590.05,12.08,0000 0000 0000 0000 000000
2017-08-21 06:15:55,0.04,0.12,0.00,24.27,28.95,31.56,13.76,44.99,1011.25,2026.28,3476.29,3051.00,3489.92,599.52,589.86,12.13,0000 0000 0000 0000 000000
2017-08-21 06:20:56,0.04,0.12,0.00,24.27,28.93,31.55,13.77,44.81,1011.25,2026.59,3475.79,3050.95,3489.21,600.04,590.42,12.18,0000 0000 0000 0000 000000
2017-08-21 06:25:58,0.05,0.13,0.00,24.28,28.92,31.54,13.88,44.83,1011.25,2026.85,3475.04,3050.37,3488.98,600.23,590.59,12.23,0000 0000 0000 0000 000000
2017-08-21 06:30:59,0.03,0.13,0.00,24.25,28.90,31.51,13.79,44.73,1011.26,2026.94,3474.59,3050.02,3488.54,599.82,590.30,12.28,0000 0000 0000 0000 000000
2017-08-21 06:36:00,0.01,0.13,0.00,24.22,28.88,31.50,13.87,44.68,1011.26,2026.98,3474.02,3050.00,3488.04,600.23,590.59,12.34,0000 0000 0000 0000 000000
2017-08-21 06:41:01,0.01,0.13,0.00,24.21,28.86,31.52,13.77,44.67,1011.29,2026.99,3473.30,3049.98,3487.96,599.69,590.22,12.39,0000 0000 0000 0000 000000
2017-08-21 06:46:03,0.02,0.13,0.00,24.20,28.85,31.55,13.89,44.77,1011.63,2026.99,3472.99,3049.76,3487.38,600.35,591.00,12.44,0000 0000 0000 0000 000000
2017-08-21 06:51:04,0.02,0.13,0.00,24.21,28.82,31.58,13.87,44.71,1011.73,2026.99,3472.56,3049.24,3487.02,600.12,590.59,12.49,0000 0000 0000 0000 000000
2017-08-21 06:56:05,0.00,0.13,0.00,24.20,28.81,31.64,13.81,44.74,1011.73,2027.00,3472.05,3049.06,3487.00,599.79,590.47,12.54,0000 0000 0000 0000 000000
2017-08-21 07:01:07,0.00,0.13,0.00,24.20,28.80,31.65,13.84,44.71,1011.73,2027.01,3472.02,3049.04,3486.99,599.70,590.52,12.59,0000 0000 0000 0000 000000
2017-08-21 07:06:08,0.00,0.13,0.00,24.20,28.78,31.65,13.77,44.89,1011.73,2027.03,3472.01,3049.04,3486.98,599.86,590.75,12.64,0000 0000 0000 0000 000000
2017-08-21 07:11:09,-0.00,0.13,0.00,24.20,28.77,31.66,13.82,44.83,1011.74,2027.02,3472.01,3049.03,3486.96,599.55,590.49,12.69,0000 0000 0000 0000 000000
2017-08-21 07:16:11,0.01,0.13,0.00,24.20,28.75,31.65,13.80,44.83,1011.78,2027.06,3472.00,3049.00,3486.80,599.82,590.65,12.74,0000 0000 0000 0000 000000
2017-08-21 07:21:12,0.01,0.14,0.00,24.21,28.75,31.63,13.80,44.75,1011.91,2027.07,3471.94,3049.00,3486.29,599.79,590.62,12.79,0000 0000 0000 0000 000000
2017-08-21 07:26:13,0.02,0.14,0.00,24.24,28.74,31.63,13.87,44.82,1011.89,2027.18,3471.29,3049.00,3486.05,600.42,591.15,12.84,0000 0000 0000 0000 000000
2017-08-21 07:31:14,0.04,0.14,0.00,24.26,28.72,31.62,13.87,44.78,1011.75,2027.54,3471.09,3049.00,3486.01,599.87,590.51,12.89,0000 0000 0000 0000 000000
2017-08-21 07:36:15,0.02,0.14,0.00,24.27,28.72,31.63,13.76,44.76,1011.75,2027.78,3471.02,3049.00,3486.01,599.93,590.52,12.94,0000 0000 0000 0000 000000
2017-08-21 07:41:17,-0.00,0.14,0.00,24.29,28.72,31.62,13.82,44.76,1011.83,2027.88,3470.98,3049.00,3486.00,599.94,590.66,12.99,0000 0000 0000 0000 000000
2017-08-21 07:46:18,0.01,0.14,0.00,24.30,28.72,31.62,13.84,44.77,1011.79,2027.82,3470.61,3048.96,3485.92,600.23,590.82,13.04,0000 0000 0000 0000 000000
2017-08-21 07:51:19,0.02,0.14,0.00,24.29,28.71,31.63,13.80,44.89,1011.92,2027.94,3470.12,3048.93,3485.71,599.93,590.68,13.09,0000 0000 0000 0000 000000
2017-08-21 07:56:20,0.01,0.14,0.00,24.30,28.70,31.61,13.83,44.81,1012.00,2027.95,3470.00,3048.77,3485.15,600.27,591.01,13.14,0000 0000 0000 0000 000000
2017-08-21 08:01:22,0.01,0.14,0.00,24.31,28.70,31.61,13.90,44.86,1012.15,2027.97,3469.99,3048.51,3485.03,600.36,591.24,13.19,0000 0000 0000 0000 000000
2017-08-21 08:06:23,0.01,0.14,0.00,24.32,28.70,31.60,13.80,44.71,1012.19,2027.97,3469.73,3048.15,3485.00,599.72,590.39,13.24,0000 0000 0000 0000 000000
2017-08-21 08:11:24,0.01,0.14,0.00,24.34,28.70,31.62,13.81,44.74,1012.22,2027.98,3469.19,3048.07,3484.98,600.02,590.78,13.29,0000 0000 0000 0000 000000
2017-08-21 08:16:26,0.01,0.14,0.00,24.35,28.70,31.61,13.77,44.69,1012.22,2027.98,3468.99,3048.01,3484.66,599.88,590.71,13.34,0000 0000 0000 0000 000000
2017-08-21 08:21:27,0.00,0.15,0.00,24.35,28.70,31.61,13.85,44.70,1012.22,2027.99,3468.84,3048.00,3484.09,600.08,590.85,13.39,0000 0000 0000 0000 000000
2017-08-21 08:26:28,0.01,0.15,0.00,24.37,28.70,31.62,13.80,44.64,1012.22,2027.98,3468.11,3047.99,3484.00,600.12,590.89,13.44,0000 0000 0000 0000 000000
2017-08-21 08:31:30,0.00,0.15,0.00,24.37,28.70,31.63,13.75,44.62,1012.22,2027.99,3468.00,3047.98,3483.99,600.09,590.81,13.49,0000 0000 0000 0000 000000
2017-08-21 08:36:31,0.00,0.15,0.00,24.40,28.70,31.60,13.80,44.78,1012.23,2027.98,3467.99,3047.92,3483.95,599.84,590.54,13.54,0000 0000 0000 0000 000000
2017-08-21 08:41:33,0.03,0.15,0.00,24.41,28.70,31.62,13.76,44.68,1012.22,2027.99,3467.63,3047.61,3483.44,599.81,590.30,13.59,0000 0000 0000 0000 000000
2017-08-21 08:46:34,0.01,0.15,0.00,24.41,28.70,31.63,13.83,44.70,1012.22,2027.99,3467.02,3047.07,3483.01,599.82,590.27,13.64,0000 0000 0000 0000 000000
2017-08-21 08:51:35,0.00,0.15,0.00,24.42,28.70,31.64,13.84,44.70,1012.22,2027.99,3466.99,3047.01,3483.00,599.89,590.59,13.69,0000 0000 0000 0000 000000
2017-08-21 08:56:36,0.01,0.15,0.00,24.45,28.70,31.63,13.82,44.76,1012.23,2027.99,3466.32,3047.00,3482.80,599.78,590.51,13.74,0000 0000 0000 0000 000000
2017-08-21 09:01:37,0.01,0.15,0.00,24.45,28.72,31.64,13.77,44.64,1012.23,2027.99,3466.03,3046.99,3482.18,599.86,590.39,13.79,0000 0000 0000 0000 000000
2017-08-21 09:06:39,0.00,0.15,0.00,24.47,28.72,31.64,13.78,44.60,1012.23,2027.98,3465.93,3046.87,3482.01,599.92,590.48,13.84,0000 0000 0000 0000 000000
2017-08-21 09:11:40,0.03,0.15,0.00,24.47,28.72,31.65,13.88,44.68,1012.26,2027.97,3465.23,3046.15,3481.90,600.32,590.82,13.89,0000 0000 0000 0000 000000
2017-08-21 09:16:41,0.01,0.15,0.00,24.48,28.72,31.67,13.79,44.73,1012.30,2027.96,3465.00,3046.01,3481.40,599.91,590.54,13.94,0000 0000 0000 0000 000000
2017-08-21 09:21:42,0.01,0.15,0.00,24.50,28.74,31.67,13.88,44.70,1012.26,2027.98,3464.86,3046.00,3481.02,600.10,590.56,13.99,0000 0000 0000 0000 000000
2017-08-21 09:26:44,0.01,0.15,0.00,24.50,28.75,31.67,13.82,44.64,1012.30,2027.97,3464.21,3045.99,3481.00,599.97,590.56,14.04,0000 0000 0000 0000 000000
2017-08-21 09:31:45,0.01,0.15,0.00,24.51,28.75,31.68,13.85,44.67,1012.53,2027.95,3464.00,3045.87,3480.63,599.95,590.49,14.09,0000 0000 0000 0000 000000
2017-08-21 09:36:47,0.02,0.16,0.00,24.51,28.75,31.70,13.81,44.61,1012.39,2027.84,3463.61,3045.20,3480.04,599.97,590.44,14.14,0000 0000 0000 0000 000000
2017-08-21 09:41:48,0.02,0.16,0.00,24.52,28.77,31.71,13.76,44.63,1012.30,2027.87,3463.07,3045.01,3480.00,599.88,590.36,14.19,0000 0000 0000 0000 000000
2017-08-21 09:46:50,0.00,0.16,0.00,24.53,28.77,31.70,13.82,44.64,1012.49,2027.87,3462.99,3045.00,3479.95,600.29,590.66,14.24,0000 0000 0000 0000 000000
2017-08-21 09:51:51,0.01,0.16,0.00,24.54,28.77,31.73,13.83,44.67,1012.65,2027.88,3462.71,3044.99,3479.38,599.90,590.54,14.29,0000 0000 0000 0000 000000
2017-08-21 09:56:52,-0.00,0.16,0.00,24.54,28.78,31.72,13.81,44.72,1012.59,2027.79,3462.05,3044.97,3479.01,599.89,590.54,14.34,0000 0000 0000 0000 000000
2017-08-21 10:01:53,-0.01,0.16,0.00,24.55,28.80,31.72,13.81,44.64,1012.59,2027.57,3462.00,3044.69,3478.99,599.89,590.49,14.39,0000 0000 0000 0000 000000
2017-08-21 10:06:55,0.01,0.16,0.00,24.56,28.80,31.72,13.78,44.69,1012.60,2027.51,3461.80,3044.19,3478.90,600.03,590.67,14.44,0000 0000 0000 0000 000000
2017-08-21 10:11:56,0.02,0.16,0.00,24.57,28.80,31.75,13.78,44.68,1012.69,2027.51,3461.09,3044.04,3478.22,599.90,590.54,14.49,0000 0000 0000 0000 000000
2017-08-21 10:16:57,-0.01,0.16,0.00,24.56,28.80,31.75,13.89,44.70,1012.71,2027.34,3461.00,3044.00,3478.00,600.25,590.94,14.54,0000 0000 0000 0000 000000
2017-08-21 10:21:59,-0.00,0.16,0.00,24.57,28.81,31.76,13.83,44.73,1012.69,2027.22,3460.74,3043.99,3477.99,599.97,590.54,14.60,0000 0000 0000 0000 000000
2017-08-21 10:27:00,0.01,0.16,0.00,24.57,28.82,31.77,13.83,44.70,1012.71,2027.14,3460.07,3043.90,3477.57,600.19,590.75,14.65,0000 0000 0000 0000 000000
2017-08-21 10:32:01,0.01,0.16,0.00,24.58,28.82,31.78,13.77,44.77,1012.71,2027.06,3459.99,3043.42,3477.02,599.61,590.26,14.70,0000 0000 0000 0000 000000
2017-08-21 10:37:02,0.01,0.16,0.00,24.58,28.82,31.76,13.80,44.80,1012.71,2027.08,3459.81,3043.15,3477.00,599.83,590.40,14.75,0000 0000 0000 0000 000000
2017-08-21 10:42:03,0.01,0.16,0.00,24.59,28.83,31.77,13.75,44.78,1012.72,2027.04,3459.10,3043.00,3476.97,599.55,590.14,14.80,0000 0000 0000 0000 000000
2017-08-21 10:47:05,0.01,0.16,0.00,24.60,28.85,31.78,13.79,44.67,1012.73,2027.04,3459.00,3043.00,3476.55,600.06,590.63,14.85,0000 0000 0000 0000 000000
2017-08-21 10:52:06,0.01,0.16,0.00,24.60,28.85,31.79,13.76,44.61,1012.75,2027.06,3458.84,3042.99,3476.06,599.83,590.37,14.90,0000 0000 0000 0000 000000
2017-08-21 10:57:07,0.01,0.16,0.00,24.60,28.85,31.79,13.80,44.70,1012.81,2027.04,3458.08,3042.96,3475.99,599.89,590.39,14.95,0000 0000 0000 0000 000000
2017-08-21 11:02:09,0.01,0.16,0.00,24.60,28.85,31.80,13.80,44.70,1012.95,2027.04,3458.00,3042.57,3475.82,600.01,590.68,15.00,0000 0000 0000 0000 000000
2017-08-21 11:07:10,0.02,0.16,0.00,24.60,28.86,31.81,13.83,44.73,1012.95,2027.00,3457.59,3042.09,3475.12,599.92,590.62,15.05,0000 0000 0000 0000 000000
2017-08-21 11:12:11,0.00,0.16,0.00,24.60,28.87,31.81,13.82,44.58,1013.07,2027.01,3457.01,3042.00,3475.00,600.05,590.81,15.10,0000 0000 0000 0000 000000
2017-08-21 11:17:13,0.00,0.16,0.00,24.62,28.87,31.83,13.79,44.72,1013.02,2027.01,3457.00,3042.00,3474.98,600.15,590.75,15.15,0000 0000 0000 0000 000000
2017-08-21 11:22:14,0.02,0.16,0.00,24.61,28.87,31.82,13.83,44.72,1013.00,2027.01,3456.66,3041.98,3474.60,600.26,590.92,15.20,0000 0000 0000 0000 000000
2017-08-21 11:27:15,0.01,0.17,0.00,24.60,28.87,31.83,13.84,44.65,1013.06,2027.00,3456.03,3041.78,3474.05,600.13,590.86,15.25,0000 0000 0000 0000 000000
2017-08-21 11:32:16,0.01,0.17,0.00,24.60,28.89,31.84,13.84,44.56,1013.17,2027.00,3455.98,3041.15,3473.99,600.48,591.36,15.30,0000 0000 0000 0000 000000
2017-08-21 11:37:18,0.01,0.17,0.00,24.60,28.90,31.85,13.86,44.69,1013.19,2027.00,3455.67,3041.04,3473.85,600.06,590.96,15.35,0000 0000 0000 0000 000000
2017-08-21 11:42:19,0.02,0.17,0.00,24.60,28.90,31.84,13.75,44.63,1013.20,2027.00,3455.04,3041.00,3473.16,599.54,590.45,15.40,0000 0000 0000 0000 000000
2017-08-21 11:47:21,0.01,0.17,0.00,24.60,28.90,31.84,13.84,44.61,1013.20,2027.00,3454.55,3040.96,3472.99,599.94,590.78,15.45,0000 0000 0000 0000 000000
2017-08-21 11:52:22,0.02,0.17,0.00,24.60,28.90,31.85,13.85,44.65,1013.20,2027.00,3454.01,3040.56,3472.72,600.03,590.84,15.50,0000 0000 0000 0000 000000
2017-08-21 11:57:23,0.01,0.17,0.00,24.60,28.90,31.85,13.79,44.58,1013.20,2027.00,3453.97,3040.12,3472.10,599.73,590.71,15.55,0000 0000 0000 0000 000000
2017-08-21 12:02:24,0.01,0.17,0.00,24.60,28.92,31.85,13.78,44.55,1013.20,2027.00,3453.39,3040.02,3472.00,600.03,590.88,15.60,0000 0000 0000 0000 000000
2017-08-21 12:07:25,0.00,0.17,0.00,24.61,28.92,31.84,13.81,44.74,1013.20,2027.00,3453.01,3040.00,3471.94,599.94,590.63,15.65,0000 0000 0000 0000 000000
2017-08-21 12:12:26,0.01,0.17,0.00,24.62,28.92,31.86,13.78,44.59,1013.20,2027.00,3452.94,3039.99,3471.21,600.04,590.83,15.70,0000 0000 0000 0000 000000
2017-08-21 12:17:27,0.01,0.17,0.00,24.62,28.92,31.86,13.89,44.77,1013.20,2026.99,3452.27,3039.92,3471.02,600.06,590.85,15.75,0000 0000 0000 0000 000000
2017-08-21 12:22:29,0.02,0.17,0.00,24.62,28.93,31.88,13.73,44.65,1013.20,2026.99,3452.00,3039.47,3471.00,599.73,590.59,15.80,0000 0000 0000 0000 000000
2017-08-21 12:27:30,0.00,0.18,0.00,24.62,28.94,31.87,13.78,44.73,1013.20,2026.99,3451.96,3039.05,3470.81,600.15,591.01,15.85,0000 0000 0000 0000 000000
2017-08-21 12:32:31,0.02,0.18,0.00,24.62,28.95,31.87,13.79,44.63,1013.20,2026.99,3451.30,3039.00,3470.15,600.30,591.06,15.90,0000 0000 0000 0000 000000
2017-08-21 12:37:32,0.00,0.18,0.00,24.62,28.95,31.87,13.83,44.68,1013.20,2026.98,3451.00,3038.99,3470.00,600.20,590.94,15.95,0000 0000 0000 0000 000000
2017-08-21 12:42:34,0.00,0.18,0.00,24.64,28.95,31.89,13.84,44.68,1013.20,2026.99,3450.93,3038.96,3469.99,600.05,590.81,16.00,0000 0000 0000 0000 000000
2017-08-21 12:47:35,0.03,0.18,0.00,24.64,28.95,31.89,13.74,44.64,1013.20,2026.99,3450.26,3038.63,3469.62,599.65,590.42,16.05,0000 0000 0000 0000 000000
2017-08-21 12:52:36,0.01,0.18,0.00,24.65,28.95,31.89,13.83,44.67,1013.20,2026.98,3450.00,3038.08,3469.03,600.24,590.90,16.10,0000 0000 0000 0000 000000
2017-08-21 12:57:37,0.00,0.18,0.00,24.66,28.97,31.89,13.80,44.63,1013.20,2026.96,3449.88,3038.01,3468.99,599.94,590.74,16.15,0000 0000 0000 0000 000000